User: anonymous   Login
Location: Sungai Jaoh
(2.9167°N, 113.9167°E)
Time: 08:22:49
(UTC+00:00)
Language:

METEOR 2-8 DEB - Orbit

View from above orbital plane
View from above orbital plane
View from above satellite
View from above satellite

Ground track
Ground track

The orbit data is extracted from the following two-line orbital elements,

1 36330U 82025Q   21169.09087616  .00001538  00000-0  82753-3 0  9993
2 36330  82.5417 293.7684 0019730 354.1038   5.9902 14.12208259454931
Epoch (UTC): 18 June 2021 02:10:51
Eccentricity: 0.0019730
inclination: 82.5417°
perigee height: 837 km
apogee height: 866 km
right ascension of ascending node: 293.7684°
argument of perigee: 354.1038°
revolutions per day: 14.12208259
mean anomaly at epoch: 5.9902°
orbit number at epoch: 45493

The dashed part of the orbit path shows where the satellite is in the earth's shadow,  

DLR